Location: Dannhausen
(51.8650°N, 10.1026°E)
Time: 17:32:28
(UTC+00:00)

NOSS 2-1 (C) - Pass Details

Date: 09 April 2020
Orbit: 450 x 1753 km, 63.3° (Epoch: 20 April)

Event Time Altitude Azimuth Distance (km) Brightness Sun altitude
Rises 22:30:43 0° 314° (NW) 2,945 7.9 -29.2°
Reaches altitude 10° 22:32:43 10° 314° (NW) 2,164 7.0 -29.2°
Enters shadow 22:37:01 72° 305° (NW) 891 4.3 -29.4°
